Location: Caltech
(34.1382°N, 118.1253°W)
Time: 21:23:48
(UTC-07:00)

Iridium 91 - Visible Passes

Search period start: 01 September 2015 00:00
Search period end: 11 September 2015 00:00
Orbit: 776 x 779 km, 86.4° (Epoch: 01 September)

Date Brightness Start Highest point End Pass type
(mag) Time Alt. Az. Time Alt. Az. Time Alt. Az.
01 Sep 7.9 02:42:25 10° NNE 02:44:14 20° NNE 02:44:14 20° NNE visible
01 Sep 7.6 04:23:43 10° NW 04:24:41 14° NW 04:24:41 14° NW visible
02 Sep 8.4 02:09:54 10° NE 02:10:24 12° NE 02:10:24 12° NE visible
02 Sep 7.5 03:49:24 10° NNW 03:50:50 18° NNW 03:50:50 18° NNW visible
03 Sep 7.7 03:15:38 10° N 03:17:01 19° N 03:17:01 19° N visible
04 Sep 8.1 02:42:14 10° N 02:43:13 16° NNE 02:43:13 16° NNE visible
05 Sep 8.5 02:09:17 10° NNE 02:09:26 11° NNE 02:09:26 11° NNE visible
06 Sep 8.1 03:15:50 10° NNW 03:16:07 12° NNW 03:16:07 12° NNW visible
07 Sep 8.4 02:42:12 10° N 02:42:22 11° N 02:42:22 11° N visible
